Location: Most
(50.5330°N, 13.6500°E)
Time: 05:29:04
(UTC+02:00)

ISS - Pass Details

Date: 18 May 2021
Orbit: 417 x 422 km, 51.6° (Epoch: 13 June)

Event Time Altitude Azimuth Distance (km) Brightness Sun altitude
Rises 22:52:47 0° 260° (W) 2,362 0.3 -14.2°
Reaches altitude 10° 22:54:53 10° 261° (W) 1,500 -0.7 -14.4°
Maximum altitude 22:58:15 81° 350° (N) 430 -3.7 -14.6°
Drops below altitude 10° 23:01:38 10° 78° (ENE) 1,506 -1.1 -14.9°
Enters shadow 23:03:21 - 79° (E) 2,210 -0.3 -15.0°
